[[{"header":{"parameterUnit":"m.s-1","parameterCategory":1,"la1":30.2992,"la2":30.254,"lo1":-89.0895,"lo2":-89.0443,"dy":0.0025,"dx":0.0025,"nx":19,"ny":19,"refTime":"2026-04-23T09:00:00:Z","depth":0,"parameterNumber":2,"parameterNumberName":"U-component_of_WINDS"},"data":[0,0,0,0.4753,0.4752,0.4696,0.4695,0.4631,0.4631,0,0,0,0,0,0,0,0,0,0,0,0.4776,0.4776,0.4753,0.4752,0.4696,0.4695,0.4631,0.4631,0,0,0,0,0,0,0,0,0,0,0,0.4776,0.4776,0.4776,0.4752,0.4696,0.4695,0.4631,0.4671,0,0,0,0,0,0,0,0,0,0,0.4724,0.4752,0.4776,0.4776,0.4751,0.4696,0.4695,0.4672,0.4668,0.4661,0,0.4657,0,0.4643,0.4627,0.4627,0,0,0,0.4747,0.4756,0.4735,0.4776,0.4751,0.4696,0.472,0.467,0.4665,0.4655,0.4656,0.4653,0.4642,0.4627,0.4627,0.4602,0.4602,0,0,0.475,0.4769,0.4738,0.4732,0.4743,0.4721,0.4718,0.4667,0.4669,0.4656,0.4652,0.4641,0.4626,0.4626,0.4602,0.4602,0,0,0,0.4762,0.4772,0.4752,0.4735,0.4724,0.472,0.4716,0.4671,0.4663,0.4651,0.464,0.4626,0.4625,0.4601,0.4602,0.4627,0,0,0,0.4764,0.4779,0.4753,0.4765,0.4725,0.4697,0.4721,0.4666,0.466,0.464,0.4626,0.4625,0.4601,0.4602,0.4626,0.4636,0,0,0,0.4777,0.478,0.4775,0.4766,0.4743,0.4698,0.4686,0.4665,0.4654,0.4627,0.4625,0.4601,0.4601,0.4625,0.4634,0.4634,0,0,0,0.4798,0.4799,0.4776,0.4772,0.4743,0.4714,0.4687,0.4664,0.4644,0.4626,0.4601,0.4602,0.4625,0.4633,0.4633,0.4638,0.4641,0,0,0.481,0.4801,0.4797,0.4775,0.4755,0.4721,0.4704,0.4667,0.4646,0.4617,0.4616,0.4626,0.4634,0.4634,0.4656,0.4659,0,0,0,0.4808,0.4805,0.4795,0.4778,0.4749,0.4725,0.4688,0.4674,0.4648,0.4636,0.4626,0.463,0.4629,0.463,0.4633,0.463,0.4603,0.4603,0.4603,0.4854,0.4826,0.4817,0.4783,0.4766,0.4726,0.4709,0.4683,0.4661,0.4659,0.465,0.4667,0.4669,0.4671,0.4669,0.465,0.465,0.465,0.465,0.4868,0.486,0.4829,0.481,0.478,0.4762,0.4723,0.4708,0.4686,0.4672,0.467,0.4656,0.4675,0.4672,0.4652,0.4652,0.4652,0.4651,0.4651,0.4895,0.4886,0.4869,0.4838,0.4817,0.4781,0.4761,0.4735,0.471,0.4707,0.4694,0.4694,0.4689,0.4703,0.4703,0.4703,0.4703,0.4703,0.4703,0.493,0.4909,0.4897,0.4865,0.4848,0.4823,0.4782,0.4765,0.4738,0.472,0.472,0.4697,0.4683,0.4679,0.4704,0.4704,0.4704,0.4704,0.4704,0.4955,0.4944,0.4925,0.4909,0.4868,0.4847,0.4813,0.4779,0.4761,0.4751,0.4728,0.4722,0.471,0.4708,0.4705,0.4735,0.4735,0.4735,0.4735,0.4977,0.4968,0.4941,0.4917,0.4889,0.4855,0.4831,0.4798,0.4762,0.4748,0.4739,0.4733,0.4732,0.4721,0.4718,0.4715,0.4747,0.4747,0.4747,0.499,0.4977,0.4963,0.4929,0.4894,0.4864,0.484,0.481,0.4767,0.4747,0.4736,0.4735,0.4725,0.4723,0.4704,0.4701,0.4694,0,0]},{"header":{"parameterUnit":"m.s-1","parameterCategory":1,"la1":30.2992,"la2":30.254,"lo1":-89.0895,"lo2":-89.0443,"dy":0.0025,"dx":0.0025,"nx":19,"ny":19,"refTime":"2026-04-23T09:00:00:Z","depth":0,"parameterNumber":3,"parameterNumberName":"V-component_of_WINDS"},"data":[0,0,0,5.8551,5.8553,5.8646,5.8647,5.8775,5.8776,0,0,0,0,0,0,0,0,0,0,0,5.8531,5.8532,5.855,5.8553,5.8646,5.8647,5.8775,5.8776,0,0,0,0,0,0,0,0,0,0,0,5.8531,5.8532,5.8534,5.8553,5.8646,5.8647,5.8774,5.87,0,0,0,0,0,0,0,0,0,0,5.8607,5.8599,5.8532,5.8534,5.8554,5.8646,5.8647,5.8696,5.8705,5.8737,0,5.8771,0,5.8776,5.8786,5.8786,0,0,0,5.8546,5.8592,5.861,5.8534,5.8555,5.8646,5.8602,5.8701,5.871,5.8748,5.8773,5.8778,5.8778,5.8786,5.8787,5.9007,5.9008,0,0,5.854,5.8552,5.8603,5.8616,5.8606,5.8599,5.8605,5.8706,5.8733,5.8774,5.878,5.878,5.8787,5.8788,5.9005,5.9007,0,0,0,5.8531,5.8549,5.8564,5.8611,5.8628,5.8602,5.8609,5.8728,5.8732,5.8782,5.8782,5.8788,5.879,5.9004,5.9006,5.9086,0,0,0,5.8527,5.8543,5.8562,5.857,5.8626,5.868,5.8629,5.8725,5.8736,5.8781,5.8788,5.8791,5.9002,5.9005,5.908,5.9121,0,0,0,5.8522,5.8542,5.8559,5.857,5.8611,5.8678,5.8688,5.8727,5.8737,5.8786,5.8792,5.9001,5.9005,5.9075,5.9113,5.9182,0,0,0,5.8519,5.8627,5.856,5.868,5.8611,5.8728,5.8687,5.8773,5.8825,5.8789,5.9003,5.9006,5.9074,5.9108,5.9177,5.9243,5.9271,0,0,5.8661,5.8644,5.8714,5.8657,5.879,5.8712,5.8855,5.889,5.8883,5.8965,5.897,5.9082,5.9112,5.9181,5.9428,5.9451,0,0,0,5.8763,5.8813,5.8846,5.8897,5.8928,5.8957,5.897,5.8983,5.9053,5.8929,5.9125,5.9143,5.9183,5.9213,5.9233,5.9266,5.9021,5.902,5.902,5.8979,5.8967,5.9081,5.9079,5.9129,5.9141,5.9179,5.9198,5.9168,5.9215,5.924,5.9391,5.9428,5.9442,5.9477,5.9273,5.9274,5.9274,5.9274,5.9186,5.9255,5.9215,5.9311,5.9296,5.9375,5.939,5.9367,5.9437,5.9372,5.9406,5.9336,5.9468,5.9497,5.928,5.9279,5.9278,5.9278,5.9277,5.9326,5.9357,5.9372,5.9445,5.9502,5.9495,5.9565,5.9547,5.9531,5.9565,5.9588,5.9587,5.9583,5.9578,5.9578,5.9579,5.9579,5.958,5.958,5.9465,5.948,5.9543,5.9586,5.9616,5.9654,5.9667,5.9695,5.9721,5.9703,5.9703,5.9668,5.9484,5.9438,5.9588,5.9587,5.9585,5.9585,5.9584,5.9679,5.9628,5.9725,5.9756,5.9804,5.9861,5.9838,5.9897,5.9918,5.9952,5.9911,5.9777,5.9758,5.9742,5.9704,5.9914,5.9914,5.9914,5.9914,5.9797,5.9786,5.9881,5.9932,5.9978,5.9968,6.0075,6.0085,6.0087,6.0099,6.0066,6.0013,5.9998,5.9987,5.9966,5.993,6.0193,6.0194,6.0194,5.9928,5.992,6.0017,6.0021,6.0057,6.0087,6.0187,6.0243,6.0234,6.0205,6.0107,6.0095,6.001,5.9984,5.9951,5.9919,5.9852,0,0]}]]